• Em Portugal
  • Lista de países
  • Para 7 dias
  • Temperatura da água
  • Mapas de satélite
  • Mapa do tempo
  • Widgets de tempo
  • user-avatar
    Iniciar Sessão

    Previsão horária em Sadkowo

    Hoje, 24 Junho, Domingo

    Tempo Temperatura Precipitação Vento Pressão Humidade
    00:00 +11°C° 0 mm 4 m/s 755 mmHg 88%
    01:00 +11°C° 0 mm 3 m/s 755 mmHg 91%
    02:00 +11°C° 0 mm 3 m/s 755 mmHg 91%
    03:00 +11°C° 0 mm 4 m/s 755 mmHg 91%
    04:00 +11°C° 0 mm 4 m/s 755 mmHg 92%
    05:00 +12°C° 0 mm 4 m/s 755 mmHg 87%
    06:00 +14°C° 0 mm 4 m/s 755 mmHg 82%
    07:00 +15°C° 0 mm 4 m/s 755 mmHg 77%
    08:00 +16°C° 0,1 mm 5 m/s 755 mmHg 74%
    09:00 +16°C° 0,1 mm 5 m/s 755 mmHg 70%
    10:00 +17°C° 0,1 mm 5 m/s 755 mmHg 67%
    11:00 +17°C° 0,4 mm 5 m/s 755 mmHg 65%
    12:00 +19°C° 0,4 mm 5 m/s 755 mmHg 64%
    13:00 +19°C° 0,4 mm 5 m/s 755 mmHg 63%
    14:00 +19°C° 0,5 mm 5 m/s 755 mmHg 65%
    15:00 +19°C° 0,5 mm 4 m/s 755 mmHg 68%
    16:00 +19°C° 0,5 mm 4 m/s 755 mmHg 70%
    17:00 +18°C° 0,3 mm 4 m/s 755 mmHg 73%
    18:00 +17°C° 0,3 mm 3 m/s 755 mmHg 76%
    19:00 +16°C° 0,3 mm 3 m/s 755 mmHg 79%
    20:00 +14°C° 0,1 mm 3 m/s 755 mmHg 83%
    21:00 +14°C° 0,1 mm 2 m/s 756 mmHg 88%
    22:00 +13°C° 0,1 mm 2 m/s 756 mmHg 92%
    23:00 +13°C° 0 mm 2 m/s 756 mmHg 91%

    Amanhã, 25 Junho, Segunda-feira

    Tempo Temperatura Precipitação Vento Pressão Humidade
    00:00 +12°C° 0 mm 2 m/s 756 mmHg 91%
    01:00 +11°C° 0 mm 3 m/s 756 mmHg 91%
    02:00 +11°C° 0 mm 3 m/s 756 mmHg 92%
    03:00 +11°C° 0 mm 3 m/s 756 mmHg 93%
    04:00 +10°C° 0 mm 3 m/s 756 mmHg 94%
    05:00 +12°C° 0,1 mm 3 m/s 756 mmHg 90%
    06:00 +13°C° 0,1 mm 3 m/s 756 mmHg 86%
    07:00 +16°C° 0,1 mm 3 m/s 756 mmHg 81%
    08:00 +17°C° 0,1 mm 4 m/s 757 mmHg 74%
    09:00 +19°C° 0,1 mm 4 m/s 757 mmHg 67%
    10:00 +20°C° 0,1 mm 4 m/s 757 mmHg 60%
    11:00 +21°C° 0,1 mm 4 m/s 757 mmHg 56%
    12:00 +22°C° 0,1 mm 5 m/s 757 mmHg 52%
    13:00 +23°C° 0,1 mm 5 m/s 757 mmHg 47%
    14:00 +23°C° 0 mm 5 m/s 757 mmHg 47%
    15:00 +22°C° 0 mm 5 m/s 757 mmHg 47%
    16:00 +22°C° 0 mm 4 m/s 757 mmHg 47%
    17:00 +21°C° 0 mm 4 m/s 757 mmHg 52%
    18:00 +20°C° 0 mm 4 m/s 757 mmHg 57%
    19:00 +19°C° 0 mm 3 m/s 757 mmHg 62%
    20:00 +17°C° 0 mm 3 m/s 757 mmHg 68%
    21:00 +16°C° 0 mm 3 m/s 758 mmHg 73%
    22:00 +14°C° 0 mm 2 m/s 758 mmHg 79%
    23:00 +14°C° 0 mm 3 m/s 758 mmHg 80%

    Depois de amanhã, 26 Junho, Terça-feira

    Tempo Temperatura Precipitação Vento Pressão Humidade
    00:00 +14°C° 0 mm 3 m/s 758 mmHg 81%
    01:00 +14°C° 0 mm 3 m/s 758 mmHg 82%
    02:00 +15°C° 0 mm 2 m/s 758 mmHg 83%
    03:00 +15°C° 0 mm 2 m/s 758 mmHg 84%
    04:00 +16°C° 0 mm 2 m/s 758 mmHg 84%
    05:00 +16°C° 0,1 mm 2 m/s 758 mmHg 83%
    06:00 +17°C° 0,1 mm 3 m/s 758 mmHg 81%
    07:00 +17°C° 0,1 mm 3 m/s 758 mmHg 80%
    08:00 +18°C° 0,1 mm 3 m/s 758 mmHg 73%
    09:00 +20°C° 0,1 mm 4 m/s 759 mmHg 66%
    10:00 +21°C° 0,1 mm 4 m/s 759 mmHg 59%
    11:00 +22°C° 0,1 mm 4 m/s 759 mmHg 55%
    12:00 +23°C° 0,1 mm 5 m/s 759 mmHg 51%
    13:00 +23°C° 0,1 mm 5 m/s 759 mmHg 47%
    14:00 +23°C° 0 mm 5 m/s 759 mmHg 48%
    15:00 +23°C° 0 mm 5 m/s 759 mmHg 48%
    16:00 +22°C° 0 mm 5 m/s 759 mmHg 49%
    17:00 +21°C° 0 mm 4 m/s 759 mmHg 54%
    18:00 +20°C° 0 mm 4 m/s 759 mmHg 59%
    19:00 +18°C° 0 mm 3 m/s 759 mmHg 64%
    20:00 +17°C° 0 mm 3 m/s 759 mmHg 72%
    21:00 +15°C° 0 mm 2 m/s 760 mmHg 80%
    22:00 +13°C° 0 mm 2 m/s 760 mmHg 88%
    23:00 +13°C° 0 mm 2 m/s 760 mmHg 89%

    27 Junho, Quarta-feira

    Tempo Temperatura Precipitação Vento Pressão Humidade
    00:00 +13°C° 0 mm 2 m/s 760 mmHg 90%
    01:00 +12°C° 0 mm 1 m/s 760 mmHg 91%
    02:00 +12°C° 0 mm 2 m/s 760 mmHg 91%
    03:00 +12°C° 0 mm 2 m/s 760 mmHg 91%
    04:00 +12°C° 0 mm 2 m/s 760 mmHg 92%
    05:00 +13°C° 0 mm 3 m/s 760 mmHg 84%
    06:00 +16°C° 0 mm 3 m/s 760 mmHg 77%
    07:00 +18°C° 0 mm 4 m/s 760 mmHg 69%
    08:00 +19°C° 0 mm 5 m/s 760 mmHg 65%
    09:00 +20°C° 0 mm 5 m/s 761 mmHg 60%
    10:00 +21°C° 0 mm 6 m/s 761 mmHg 55%
    11:00 +22°C° 0,1 mm 6 m/s 761 mmHg 54%
    12:00 +23°C° 0,1 mm 6 m/s 760 mmHg 53%
    13:00 +23°C° 0,1 mm 7 m/s 760 mmHg 52%
    14:00 +23°C° 0,1 mm 7 m/s 760 mmHg 52%
    15:00 +23°C° 0,1 mm 7 m/s 760 mmHg 53%
    16:00 +23°C° 0,1 mm 7 m/s 760 mmHg 53%
    17:00 +22°C° 0 mm 7 m/s 760 mmHg 58%
    18:00 +21°C° 0 mm 6 m/s 760 mmHg 63%
    19:00 +20°C° 0 mm 5 m/s 760 mmHg 67%
    20:00 +17°C° 0 mm 5 m/s 760 mmHg 74%
    21:00 +16°C° 0 mm 5 m/s 761 mmHg 80%
    22:00 +15°C° 0 mm 4 m/s 761 mmHg 87%
    23:00 +14°C° 0 mm 4 m/s 760 mmHg 90%

    28 Junho, Quinta-feira

    Tempo Temperatura Precipitação Vento Pressão Humidade
    00:00 +14°C° 0 mm 4 m/s 760 mmHg 93%
    01:00 +14°C° 0 mm 4 m/s 760 mmHg 96%
    02:00 +14°C° 0 mm 4 m/s 760 mmHg 95%
    03:00 +14°C° 0 mm 4 m/s 760 mmHg 95%
    04:00 +14°C° 0 mm 4 m/s 760 mmHg 95%
    05:00 +17°C° 0 mm 4 m/s 759 mmHg 89%
    06:00 +17°C° 0 mm 5 m/s 759 mmHg 83%
    07:00 +20°C° 0 mm 5 m/s 759 mmHg 77%
    08:00 +21°C° 0 mm 6 m/s 759 mmHg 71%
    09:00 +22°C° 0 mm 6 m/s 758 mmHg 65%
    10:00 +23°C° 0 mm 7 m/s 758 mmHg 59%
    11:00 +23°C° 0,1 mm 7 m/s 757 mmHg 63%
    12:00 +22°C° 0,1 mm 7 m/s 757 mmHg 67%
    13:00 +21°C° 0,1 mm 7 m/s 756 mmHg 72%
    14:00 +21°C° 0,2 mm 7 m/s 755 mmHg 74%
    15:00 +21°C° 0,2 mm 7 m/s 755 mmHg 77%
    16:00 +20°C° 0,2 mm 7 m/s 754 mmHg 79%
    17:00 +20°C° 0,2 mm 8 m/s 754 mmHg 78%
    18:00 +20°C° 0,2 mm 8 m/s 753 mmHg 77%
    19:00 +20°C° 0,2 mm 8 m/s 753 mmHg 76%
    20:00 +20°C° 0,6 mm 8 m/s 753 mmHg 81%
    21:00 +18°C° 0,6 mm 8 m/s 752 mmHg 86%
    22:00 +17°C° 0,6 mm 7 m/s 752 mmHg 92%
    23:00 +17°C° 0,9 mm 7 m/s 752 mmHg 93%

    29 Junho, Sexta-feira

    Tempo Temperatura Precipitação Vento Pressão Humidade
    00:00 +17°C° 0,9 mm 6 m/s 752 mmHg 94%
    01:00 +17°C° 0,9 mm 5 m/s 751 mmHg 95%
    02:00 +17°C° 1,2 mm 5 m/s 751 mmHg 95%
    03:00 +16°C° 1,2 mm 5 m/s 751 mmHg 96%
    04:00 +17°C° 1,2 mm 4 m/s 750 mmHg 96%
    05:00 +17°C° 1,6 mm 5 m/s 750 mmHg 96%
    06:00 +17°C° 1,6 mm 5 m/s 750 mmHg 96%
    07:00 +17°C° 1,6 mm 5 m/s 750 mmHg 96%
    08:00 +18°C° 0,8 mm 4 m/s 750 mmHg 96%
    09:00 +19°C° 0,8 mm 4 m/s 750 mmHg 95%
    10:00 +19°C° 0,8 mm 4 m/s 750 mmHg 95%
    11:00 +19°C° 0,5 mm 4 m/s 750 mmHg 93%
    12:00 +20°C° 0,5 mm 4 m/s 749 mmHg 92%
    13:00 +20°C° 0,5 mm 4 m/s 749 mmHg 91%
    14:00 +20°C° 0,1 mm 4 m/s 749 mmHg 90%
    15:00 +20°C° 0,1 mm 4 m/s 749 mmHg 90%
    16:00 +20°C° 0,1 mm 4 m/s 749 mmHg 89%
    17:00 +19°C° 0 mm 4 m/s 749 mmHg 90%
    18:00 +19°C° 0 mm 4 m/s 749 mmHg 91%
    19:00 +18°C° 0 mm 4 m/s 749 mmHg 91%
    20:00 +18°C° 0 mm 3 m/s 750 mmHg 92%
    21:00 +18°C° 0 mm 3 m/s 750 mmHg 93%
    22:00 +17°C° 0 mm 3 m/s 750 mmHg 94%
    23:00 +17°C° 0 mm 3 m/s 750 mmHg 93%
    Mostrar mais